ARJ9734 LYTV-LGKR

Flight info

Callsign ARJ9734
Flight time 0h 40m
Altitude 19000
Route LASTI L187 RODON N732 LIMJA/N0412F290 N732 PITAS
Aircraft F28/M-SDFIRWY/H

Departure

Time 2026-04-27 22:37
Airport Tivat Airport (LYTV)

Arrival

Time 2026-04-27 23:17
Airport Corfu Ioannis Kapodistrias International Airport (LGKR)
Time Latitude Longitude Altitude Speed Heading
2026-04-27 22:22 42.41124 18.71802 -6 ft 0 kts 167°
2026-04-27 22:31 42.41110 18.71806 -19 ft 5 kts 168°
2026-04-27 22:32 42.41078 18.71803 -21 ft 5 kts 174°
2026-04-27 22:32 42.41028 18.71849 -19 ft 4 kts 149°
2026-04-27 22:32 42.40992 18.71849 -18 ft 4 kts 209°
2026-04-27 22:32 42.40960 18.71798 -18 ft 11 kts 224°
2026-04-27 22:33 42.40917 18.71798 -18 ft 16 kts 146°
2026-04-27 22:33 42.40834 18.71904 -18 ft 17 kts 136°
2026-04-27 22:33 42.40744 18.72013 -20 ft 18 kts 140°
2026-04-27 22:33 42.40644 18.72123 -19 ft 19 kts 141°
2026-04-27 22:34 42.40530 18.72256 -20 ft 39 kts 138°
2026-04-27 22:34 42.40259 18.72575 -18 ft 68 kts 140°
2026-04-27 22:34 42.39932 18.72961 -20 ft 57 kts 139°
2026-04-27 22:34 42.39669 18.73241 -19 ft 28 kts 144°
2026-04-27 22:35 42.39652 18.73321 -19 ft 6 kts 29°
2026-04-27 22:35 42.39654 18.73321 -19 ft 1 kts
2026-04-27 22:35 42.39670 18.73301 -20 ft 7 kts 298°
2026-04-27 22:35 42.39695 18.73245 -17 ft 7 kts 311°
2026-04-27 22:36 42.39707 18.73230 -17 ft 2 kts 319°
2026-04-27 22:36 42.39744 18.73184 -19 ft 32 kts 317°
2026-04-27 22:36 42.40263 18.72570 -18 ft 163 kts 317°
2026-04-27 22:36 42.41323 18.71287 487 ft 239 kts 319°
2026-04-27 22:37 42.42566 18.69658 1401 ft 256 kts 311°
2026-04-27 22:37 42.43409 18.67527 2001 ft 254 kts 286°
2026-04-27 22:37 42.43503 18.65189 2377 ft 252 kts 257°
2026-04-27 22:37 42.42680 18.63113 2800 ft 253 kts 225°
2026-04-27 22:38 42.41199 18.61912 3323 ft 250 kts 194°
2026-04-27 22:38 42.39499 18.61905 3843 ft 245 kts 162°
2026-04-27 22:38 42.38069 18.63076 4376 ft 241 kts 131°
2026-04-27 22:38 42.36909 18.64692 4881 ft 241 kts 145°
2026-04-27 22:39 42.35320 18.65364 5365 ft 243 kts 178°
2026-04-27 22:39 42.33665 18.64940 5894 ft 242 kts 196°
2026-04-27 22:39 42.32093 18.64222 6419 ft 241 kts 199°
2026-04-27 22:39 42.30507 18.63470 6918 ft 243 kts 199°
2026-04-27 22:40 42.28916 18.62714 7422 ft 242 kts 199°
2026-04-27 22:40 42.27281 18.62270 7915 ft 240 kts 175°
2026-04-27 22:40 42.25740 18.63043 8638 ft 234 kts 142°
2026-04-27 22:40 42.24736 18.64766 8980 ft 245 kts 115°
2026-04-27 22:41 42.24030 18.66917 9040 ft 248 kts 114°
2026-04-27 22:41 42.23294 18.68959 9344 ft 244 kts 118°
2026-04-27 22:41 42.22431 18.70959 9726 ft 243 kts 122°
2026-04-27 22:41 42.21489 18.72797 10066 ft 243 kts 127°
2026-04-27 22:42 42.20438 18.74591 10427 ft 242 kts 129°
2026-04-27 22:42 42.19318 18.76328 10791 ft 256 kts 132°
2026-04-27 22:42 42.18078 18.78120 11495 ft 266 kts 133°
2026-04-27 22:42 42.16758 18.79935 12270 ft 276 kts 134°
2026-04-27 22:43 42.15362 18.81794 13057 ft 289 kts 135°
2026-04-27 22:43 42.13880 18.83718 13861 ft 302 kts 135°
2026-04-27 22:43 42.12331 18.85708 14593 ft 313 kts 136°
2026-04-27 22:43 42.10710 18.87743 15321 ft 323 kts 140°
2026-04-27 22:44 42.08708 18.89188 16076 ft 333 kts 160°
2026-04-27 22:44 42.06468 18.90092 16853 ft 340 kts 165°
2026-04-27 22:44 42.04147 18.90845 17650 ft 346 kts 167°
2026-04-27 22:44 42.01776 18.91558 18443 ft 351 kts 167°
2026-04-27 22:45 41.99369 18.92286 19157 ft 355 kts 167°
2026-04-27 22:45 41.96955 18.93026 19879 ft 358 kts 167°
2026-04-27 22:45 41.94525 18.93809 20624 ft 360 kts 166°
2026-04-27 22:45 41.92133 18.94608 21364 ft 361 kts 166°
2026-04-27 22:46 41.89694 18.95429 22145 ft 361 kts 167°
2026-04-27 22:46 41.87261 18.96238 22934 ft 360 kts 167°
2026-04-27 22:46 41.84836 18.97048 23728 ft 359 kts 167°
2026-04-27 22:46 41.82333 18.97889 23655 ft 383 kts 167°
2026-04-27 22:47 41.79682 18.98783 23611 ft 402 kts 167°
2026-04-27 22:47 41.76922 18.99716 23936 ft 408 kts 167°
2026-04-27 22:47 41.74122 19.00665 23879 ft 426 kts 167°
2026-04-27 22:47 41.71185 19.01638 23645 ft 444 kts 167°
2026-04-27 22:48 41.68100 19.02668 22940 ft 470 kts 167°
2026-04-27 22:48 41.64863 19.03756 22239 ft 485 kts 167°
2026-04-27 22:48 41.61621 19.04848 21569 ft 473 kts 167°
2026-04-27 22:48 41.58477 19.05906 20914 ft 461 kts 167°
2026-04-27 22:49 41.55474 19.06916 20285 ft 438 kts 167°
2026-04-27 22:49 41.52521 19.07904 19674 ft 436 kts 167°
2026-04-27 22:49 41.49580 19.08884 19086 ft 435 kts 167°
2026-04-27 22:49 41.46661 19.09862 18869 ft 424 kts 166°
2026-04-27 22:50 41.43876 19.10978 18915 ft 416 kts 163°
2026-04-27 22:50 41.41139 19.12236 18938 ft 422 kts 161°
2026-04-27 22:50 41.38354 19.13606 18963 ft 427 kts 160°
2026-04-27 22:50 41.35595 19.15001 18968 ft 432 kts 160°
2026-04-27 22:51 41.32735 19.16436 18973 ft 435 kts 161°
2026-04-27 22:51 41.29900 19.17847 18974 ft 438 kts 161°
2026-04-27 22:51 41.27026 19.19275 18976 ft 441 kts 161°
2026-04-27 22:51 41.24134 19.20681 18975 ft 443 kts 161°
2026-04-27 22:52 41.21238 19.22073 18976 ft 445 kts 162°
2026-04-27 22:52 41.18357 19.23454 18976 ft 446 kts 162°
2026-04-27 22:52 41.15411 19.24869 18976 ft 442 kts 162°
2026-04-27 22:52 41.12541 19.26254 18974 ft 437 kts 162°
2026-04-27 22:53 41.09705 19.27628 18969 ft 433 kts 162°
2026-04-27 22:53 41.06872 19.29006 18969 ft 431 kts 162°
2026-04-27 22:53 41.04039 19.30385 18971 ft 435 kts 162°
2026-04-27 22:53 41.01188 19.31776 18973 ft 438 kts 162°
2026-04-27 22:54 40.98328 19.33176 18975 ft 441 kts 162°
2026-04-27 22:54 40.95479 19.34570 18975 ft 443 kts 162°
2026-04-27 22:54 40.92568 19.35960 18977 ft 445 kts 162°
2026-04-27 22:54 40.89651 19.37337 18973 ft 446 kts 162°
2026-04-27 22:55 40.86725 19.38743 18972 ft 447 kts 162°
2026-04-27 22:55 40.83802 19.40167 18974 ft 448 kts 162°
2026-04-27 22:55 40.80863 19.41574 18974 ft 449 kts 162°
2026-04-27 22:55 40.77943 19.42962 18976 ft 433 kts 162°
2026-04-27 22:56 40.75183 19.44284 18968 ft 426 kts 162°
2026-04-27 22:56 40.72335 19.45631 18967 ft 443 kts 162°
2026-04-27 22:56 40.69457 19.47019 18979 ft 429 kts 162°
2026-04-27 22:56 40.66681 19.48356 18976 ft 421 kts 162°
2026-04-27 22:57 40.63947 19.49660 18973 ft 414 kts 162°
2026-04-27 22:57 40.61259 19.50936 18969 ft 409 kts 163°
2026-04-27 22:57 40.58594 19.52199 18971 ft 404 kts 162°
2026-04-27 22:57 40.55972 19.53439 18964 ft 400 kts 163°
2026-04-27 22:58 40.53357 19.54676 18968 ft 397 kts 163°
2026-04-27 22:58 40.50766 19.55902 18968 ft 394 kts 163°
2026-04-27 22:58 40.48192 19.57119 18975 ft 392 kts 163°
2026-04-27 22:58 40.45661 19.58316 18978 ft 391 kts 163°
2026-04-27 22:59 40.43107 19.59522 18979 ft 390 kts 163°
2026-04-27 22:59 40.40529 19.60738 18975 ft 389 kts 163°
2026-04-27 22:59 40.38019 19.61924 18980 ft 388 kts 162°
2026-04-27 22:59 40.35486 19.63123 18977 ft 387 kts 162°
2026-04-27 23:00 40.30405 19.65522 18976 ft 386 kts 162°
2026-04-27 23:00 40.27910 19.66704 18971 ft 385 kts 162°
2026-04-27 23:00 40.25399 19.67884 18967 ft 384 kts 162°
2026-04-27 23:01 40.22880 19.69066 18973 ft 384 kts 162°
2026-04-27 23:01 40.20368 19.70251 18970 ft 384 kts 162°
2026-04-27 23:01 40.18037 19.71352 18963 ft 383 kts 163°
2026-04-27 23:01 40.15523 19.72530 18963 ft 383 kts 162°
2026-04-27 23:02 40.13018 19.73702 18962 ft 382 kts 162°
2026-04-27 23:02 40.10516 19.74872 18978 ft 382 kts 162°
2026-04-27 23:02 40.08014 19.76047 18976 ft 382 kts 162°
2026-04-27 23:02 40.05514 19.77225 18975 ft 382 kts 162°
2026-04-27 23:03 40.03007 19.78400 18972 ft 382 kts 162°
2026-04-27 23:03 40.00502 19.79567 18974 ft 382 kts 162°
2026-04-27 23:03 39.97997 19.80740 18860 ft 386 kts 162°
2026-04-27 23:03 39.95445 19.81948 18397 ft 398 kts 162°
2026-04-27 23:04 39.92809 19.83201 17701 ft 409 kts 162°
2026-04-27 23:04 39.90132 19.84468 16669 ft 405 kts 162°
2026-04-27 23:04 39.87429 19.85206 15671 ft 390 kts 176°
2026-04-27 23:04 39.84783 19.85108 14720 ft 373 kts 191°
2026-04-27 23:05 39.82344 19.84175 13788 ft 359 kts 204°
2026-04-27 23:05 39.80179 19.82666 12770 ft 350 kts 214°
2026-04-27 23:05 39.78228 19.80827 11780 ft 343 kts 219°
2026-04-27 23:05 39.76461 19.78849 10844 ft 339 kts 223°
2026-04-27 23:06 39.74730 19.76720 9893 ft 336 kts 224°
2026-04-27 23:06 39.73110 19.74609 8899 ft 333 kts 224°
2026-04-27 23:06 39.71410 19.72572 7914 ft 331 kts 220°
2026-04-27 23:06 39.69678 19.70636 6966 ft 329 kts 219°
2026-04-27 23:07 39.67922 19.68729 6016 ft 328 kts 219°
2026-04-27 23:07 39.66163 19.66850 5047 ft 327 kts 219°
2026-04-27 23:07 39.64391 19.65016 4067 ft 326 kts 215°
2026-04-27 23:07 39.62387 19.63641 3105 ft 326 kts 204°
2026-04-27 23:08 39.60294 19.62513 2130 ft 326 kts 202°
2026-04-27 23:08 39.58916 19.61829 1978 ft 312 kts 201°
2026-04-27 23:08 39.56958 19.60886 2077 ft 288 kts 200°
2026-04-27 23:08 39.55117 19.60023 2117 ft 277 kts 197°
2026-04-27 23:09 39.53223 19.59910 2130 ft 273 kts 168°
2026-04-27 23:09 39.51545 19.60953 2151 ft 269 kts 139°
2026-04-27 23:09 39.50462 19.62883 2170 ft 265 kts 110°
2026-04-27 23:09 39.50235 19.65204 2173 ft 262 kts 81°
2026-04-27 23:10 39.50783 19.67433 2183 ft 259 kts 58°
2026-04-27 23:10 39.51611 19.69492 2171 ft 261 kts 73°
2026-04-27 23:10 39.51630 19.71832 2166 ft 264 kts 103°
2026-04-27 23:10 39.50756 19.73836 2505 ft 253 kts 134°
2026-04-27 23:11 39.49403 19.75240 2829 ft 246 kts 129°
2026-04-27 23:11 39.48581 19.77097 3016 ft 249 kts 109°
2026-04-27 23:11 39.48216 19.79402 2977 ft 248 kts 94°
2026-04-27 23:11 39.48061 19.81646 3105 ft 248 kts 95°
2026-04-27 23:12 39.47892 19.83649 3163 ft 198 kts 94°
2026-04-27 23:12 39.47871 19.85285 3153 ft 168 kts 83°
2026-04-27 23:12 39.48043 19.86508 3141 ft 113 kts 74°
2026-04-27 23:12 39.48275 19.87446 2926 ft 109 kts 69°
2026-04-27 23:13 39.48512 19.88410 2689 ft 116 kts 73°
2026-04-27 23:13 39.48764 19.89326 2662 ft 102 kts 61°
2026-04-27 23:13 39.49244 19.89969 2588 ft 114 kts 39°
2026-04-27 23:13 39.49911 19.90626 2592 ft 124 kts 36°
2026-04-27 23:14 39.50645 19.91302 2507 ft 133 kts 34°
2026-04-27 23:14 39.51445 19.91844 2394 ft 131 kts 19°
2026-04-27 23:14 39.52304 19.92173 2068 ft 122 kts 14°
2026-04-27 23:14 39.53047 19.92363 1655 ft 102 kts
2026-04-27 23:15 39.53759 19.92424 1158 ft 109 kts
2026-04-27 23:15 39.54568 19.92404 886 ft 124 kts 358°
2026-04-27 23:15 39.55419 19.92295 737 ft 123 kts 355°
2026-04-27 23:15 39.56273 19.92160 613 ft 122 kts 352°
2026-04-27 23:16 39.57113 19.91981 417 ft 122 kts 350°
2026-04-27 23:16 39.57945 19.91779 226 ft 119 kts 349°
2026-04-27 23:16 39.58796 19.91571 83 ft 133 kts 349°
2026-04-27 23:16 39.59621 19.91369 45 ft 100 kts 350°
2026-04-27 23:17 39.60174 19.91224 15 ft 77 kts 347°
2026-04-27 23:17 39.60634 19.91100 11 ft 56 kts 348°
2026-04-27 23:17 39.60927 19.91023 12 ft 27 kts 348°
2026-04-27 23:17 39.61011 19.91001 12 ft 6 kts 359°
2026-04-27 23:18 39.61037 19.91035 12 ft 14 kts 62°
2026-04-27 23:18 39.61060 19.91094 14 ft 2 kts 84°
2026-04-27 23:18 39.61044 19.91124 12 ft 11 kts 149°
2026-04-27 23:18 39.60948 19.91151 12 ft 15 kts 168°
2026-04-27 23:19 39.60841 19.91178 12 ft 16 kts 170°
2026-04-27 23:19 39.60724 19.91205 14 ft 17 kts 167°
2026-04-27 23:19 39.60692 19.91273 12 ft 8 kts 71°
2026-04-27 23:19 39.60701 19.91328 12 ft 0 kts 83°